This is the latest recevied weather packets stored in our database for station/object K8GLX. If no packets are shown the sender has not sent any weather packets the latest 10 day(s).
| Time | Temp. | Humidity | Pressure | Rain* | Wind** | Luminosity | Snow |
|---|---|---|---|---|---|---|---|
| 1777555033 | 6.67° C | 80% | 1013.1 hPa | 0 mm | - | 227 W/m² | - |
| 1777554738 | 6.67° C | 81% | 1013.2 hPa | 0 mm | - | 207 W/m² | - |
| 1777554433 | 6.67° C | 81% | 1013.1 hPa | 0 mm | - | 208 W/m² | - |
| 1777554138 | 6.11° C | 82% | 1013.1 hPa | 0 mm | - | 147 W/m² | - |
| 1777553833 | 6.67° C | 82% | 1012.8 hPa | 0 mm | - | 95 W/m² | - |
| 1777553538 | 6.11° C | 82% | 1012.7 hPa | 0 mm | - | 127 W/m² | - |
| 1777553236 | 6.11° C | 83% | 1012.8 hPa | 0 mm | - | 116 W/m² | - |
| 1777552938 | 6.11° C | 84% | 1012.9 hPa | 0 mm | - | 108 W/m² | - |
| 1777552633 | 6.11° C | 83% | 1012.8 hPa | 0.25 mm | - | 119 W/m² | - |
| 1777552339 | 6.11° C | 83% | 1012.7 hPa | 0.25 mm | - | 143 W/m² | - |
| 1777552032 | 6.11° C | 84% | 1012.9 hPa | 0.25 mm | - | 135 W/m² | - |
| 1777551738 | 6.11° C | 84% | 1012.7 hPa | 0.25 mm | - | 103 W/m² | - |
| 1777551433 | 6.11° C | 84% | 1013 hPa | 0.25 mm | - | 92 W/m² | - |
| 1777551138 | 6.11° C | 85% | 1012.9 hPa | 0.25 mm | - | 83 W/m² | - |
| 1777550833 | 6.11° C | 85% | 1013 hPa | 0.25 mm | - | 76 W/m² | - |
| 1777550538 | 6.11° C | 85% | 1012.7 hPa | 0.25 mm | - | 60 W/m² | - |
| 1777550232 | 5.56° C | 85% | 1012.8 hPa | 0.25 mm | - | 46 W/m² | - |
| 1777549938 | 5.56° C | 86% | 1012.8 hPa | 0.25 mm | - | 46 W/m² | - |
| 1777549633 | 5.56° C | 85% | 1012.7 hPa | 0 mm | - | 50 W/m² | - |
| 1777549339 | 5.56° C | 85% | 1012.7 hPa | 0 mm | - | 44 W/m² | - |
| 1777549033 | 6.11° C | 84% | 1012.9 hPa | 0 mm | - | 52 W/m² | - |
| 1777548738 | 6.11° C | 83% | 1012.7 hPa | 0 mm | - | 46 W/m² | - |
| 1777548549 | 5.56° C | 83% | 1012.6 hPa | 0 mm | - | 41 W/m² | - |
| 1777548266 | 5.56° C | 83% | 1012.8 hPa | 0 mm | - | 35 W/m² | - |
| 1777547833 | 5.56° C | 83% | 1012.6 hPa | 0 mm | - | 31 W/m² | - |
* Rain latest hour (hover to see other rain measurements)
** Current wind speed in m/s (hover to see current wind gust speed)